Location: Shannon
(40.5500°S, 175.4167°E)
Time: 11:23:47
(UTC+00:00)

Meteor 2-14 Rocket - Pass Details

Date: 17 November 2025
Orbit: 936 x 957 km, 82.5° (Epoch: 09 December)

Event Time Altitude Azimuth Distance (km) Brightness Sun altitude
Rises 14:46:28 0° 191° (S) 3,673 8.1 -19.3°
Reaches altitude 10° 14:49:00 10° 192° (SSW) 2,720 7.3 -19.0°
Maximum altitude 14:55:12 71° 274° (W) 1,018 4.4 -18.2°
Enters shadow 14:59:40 19° 354° (N) 2,083 5.8 -17.6°
